Location: Les Chemineaux
(47.3024°N, 1.5104°E)
Time: 05:37:24
(UTC+00:00)

Cosmos 1125 Rocket - Pass Details

Date: 19 May 2025
Orbit: 753 x 776 km, 74.0° (Epoch: 13 June)

Event Time Altitude Azimuth Distance (km) Brightness Sun altitude
Rises 21:02:26 0° 337° (NNW) 3,268 8.3 -12.9°
Reaches altitude 10° 21:04:50 10° 337° (NNW) 2,336 7.3 -13.1°
Maximum altitude 21:10:09 85° 250° (WSW) 786 3.5 -13.7°
Enters shadow 21:14:00 19° 163° (SSE) 1,772 4.8 -14.1°
